Hourly Weather Al Hilla

Today, 31 October, Saturday

Time Temperature Precipitation Wind Pressure Humidity
00:00 +19°C° 0 mm 2 mps 758 mmHg 18%
01:00 +19°C° 0 mm 2 mps 758 mmHg 18%
02:00 +19°C° 0 mm 2 mps 758 mmHg 18%
03:00 +19°C° 0 mm 2 mps 758 mmHg 19%
04:00 +19°C° 0 mm 2 mps 758 mmHg 19%
05:00 +19°C° 0 mm 3 mps 758 mmHg 20%
06:00 +19°C° 0 mm 3 mps 758 mmHg 20%
07:00 +22°C° 0 mm 3 mps 759 mmHg 17%
08:00 +26°C° 0 mm 4 mps 759 mmHg 15%
09:00 +28°C° 0 mm 5 mps 759 mmHg 13%
10:00 +30°C° 0 mm 5 mps 759 mmHg 11%
11:00 +33°C° 0 mm 5 mps 759 mmHg 10%
12:00 +35°C° 0 mm 5 mps 758 mmHg 9%
13:00 +36°C° 0 mm 5 mps 758 mmHg 8%
14:00 +36°C° 0 mm 5 mps 757 mmHg 8%
15:00 +36°C° 0 mm 5 mps 757 mmHg 8%
16:00 +34°C° 0 mm 5 mps 757 mmHg 9%
17:00 +32°C° 0 mm 5 mps 757 mmHg 11%
18:00 +29°C° 0 mm 5 mps 757 mmHg 12%
19:00 +28°C° 0 mm 5 mps 757 mmHg 12%
20:00 +27°C° 0 mm 5 mps 757 mmHg 13%
21:00 +26°C° 0 mm 6 mps 757 mmHg 14%
22:00 +25°C° 0 mm 5 mps 757 mmHg 14%
23:00 +25°C° 0 mm 5 mps 757 mmHg 15%

Tomorrow, 1 November, Sunday

Time Temperature Precipitation Wind Pressure Humidity
00:00 +23°C° 0 mm 5 mps 757 mmHg 16%
01:00 +22°C° 0 mm 5 mps 757 mmHg 17%
02:00 +22°C° 0 mm 4 mps 757 mmHg 18%
03:00 +21°C° 0 mm 4 mps 757 mmHg 19%
04:00 +21°C° 0 mm 4 mps 757 mmHg 20%
05:00 +20°C° 0 mm 4 mps 758 mmHg 21%
06:00 +20°C° 0 mm 4 mps 758 mmHg 22%
07:00 +22°C° 0 mm 5 mps 758 mmHg 20%
08:00 +26°C° 0 mm 5 mps 759 mmHg 17%
09:00 +28°C° 0 mm 5 mps 759 mmHg 15%
10:00 +30°C° 0 mm 5 mps 759 mmHg 13%
11:00 +34°C° 0 mm 5 mps 759 mmHg 12%
12:00 +36°C° 0 mm 6 mps 759 mmHg 10%
13:00 +36°C° 0 mm 6 mps 758 mmHg 9%
14:00 +38°C° 0 mm 6 mps 758 mmHg 9%
15:00 +39°C° 0 mm 6 mps 757 mmHg 8%
16:00 +35°C° 0 mm 6 mps 757 mmHg 10%
17:00 +33°C° 0 mm 6 mps 757 mmHg 11%
18:00 +30°C° 0 mm 5 mps 757 mmHg 12%
19:00 +29°C° 0 mm 6 mps 757 mmHg 13%
20:00 +29°C° 0 mm 6 mps 758 mmHg 14%
21:00 +28°C° 0 mm 6 mps 758 mmHg 15%
22:00 +27°C° 0 mm 6 mps 758 mmHg 16%
23:00 +27°C° 0 mm 6 mps 758 mmHg 17%

Day after tomorrow, 2 November, Monday

Time Temperature Precipitation Wind Pressure Humidity
00:00 +26°C° 0 mm 5 mps 758 mmHg 18%
01:00 +25°C° 0 mm 5 mps 758 mmHg 19%
02:00 +23°C° 0 mm 5 mps 758 mmHg 20%
03:00 +23°C° 0 mm 5 mps 757 mmHg 21%
04:00 +22°C° 0 mm 4 mps 758 mmHg 22%
05:00 +21°C° 0 mm 4 mps 758 mmHg 23%
06:00 +21°C° 0 mm 3 mps 758 mmHg 24%
07:00 +23°C° 0 mm 4 mps 759 mmHg 22%
08:00 +27°C° 0 mm 4 mps 759 mmHg 19%
09:00 +29°C° 0 mm 4 mps 759 mmHg 16%
10:00 +32°C° 0 mm 4 mps 759 mmHg 14%
11:00 +35°C° 0 mm 5 mps 759 mmHg 12%
12:00 +37°C° 0 mm 5 mps 758 mmHg 10%
13:00 +39°C° 0 mm 5 mps 758 mmHg 9%
14:00 +39°C° 0 mm 5 mps 758 mmHg 9%
15:00 +40°C° 0 mm 5 mps 757 mmHg 8%
16:00 +36°C° 0 mm 5 mps 757 mmHg 10%
17:00 +34°C° 0 mm 5 mps 757 mmHg 11%
18:00 +32°C° 0 mm 5 mps 757 mmHg 12%
19:00 +30°C° 0 mm 5 mps 757 mmHg 13%
20:00 +29°C° 0 mm 5 mps 758 mmHg 14%
21:00 +28°C° 0 mm 5 mps 758 mmHg 15%
22:00 +27°C° 0 mm 4 mps 758 mmHg 16%
23:00 +26°C° 0 mm 4 mps 758 mmHg 18%

3 November, Tuesday

Time Temperature Precipitation Wind Pressure Humidity
00:00 +25°C° 0 mm 3 mps 758 mmHg 20%
01:00 +24°C° 0 mm 3 mps 758 mmHg 21%
02:00 +23°C° 0 mm 2 mps 758 mmHg 23%
03:00 +20°C° 0 mm 2 mps 758 mmHg 25%
04:00 +21°C° 0 mm 2 mps 758 mmHg 25%
05:00 +21°C° 0 mm 3 mps 758 mmHg 25%
06:00 +21°C° 0 mm 3 mps 758 mmHg 25%
07:00 +23°C° 0 mm 4 mps 758 mmHg 22%
08:00 +26°C° 0 mm 4 mps 758 mmHg 19%
09:00 +29°C° 0 mm 5 mps 759 mmHg 16%
10:00 +32°C° 0 mm 5 mps 758 mmHg 14%
11:00 +35°C° 0 mm 6 mps 758 mmHg 12%
12:00 +38°C° 0 mm 6 mps 757 mmHg 10%
13:00 +39°C° 0 mm 6 mps 757 mmHg 9%
14:00 +39°C° 0 mm 5 mps 757 mmHg 9%
15:00 +40°C° 0 mm 5 mps 756 mmHg 8%
16:00 +36°C° 0 mm 4 mps 756 mmHg 10%
17:00 +33°C° 0 mm 4 mps 756 mmHg 12%
18:00 +29°C° 0 mm 3 mps 756 mmHg 15%
19:00 +28°C° 0 mm 3 mps 757 mmHg 16%
20:00 +27°C° 0 mm 3 mps 757 mmHg 17%
21:00 +26°C° 0 mm 2 mps 757 mmHg 18%
22:00 +25°C° 0 mm 2 mps 757 mmHg 19%
23:00 +25°C° 0 mm 2 mps 757 mmHg 20%

4 November, Wednesday

Time Temperature Precipitation Wind Pressure Humidity
00:00 +24°C° 0 mm 2 mps 757 mmHg 22%
01:00 +24°C° 0 mm 3 mps 757 mmHg 22%
02:00 +24°C° 0 mm 3 mps 757 mmHg 23%
03:00 +24°C° 0 mm 3 mps 756 mmHg 23%
04:00 +22°C° 0 mm 3 mps 757 mmHg 23%
05:00 +22°C° 0 mm 3 mps 757 mmHg 24%
06:00 +22°C° 0 mm 4 mps 757 mmHg 24%
07:00 +25°C° 0 mm 4 mps 757 mmHg 21%
08:00 +28°C° 0 mm 5 mps 757 mmHg 19%
09:00 +30°C° 0 mm 5 mps 757 mmHg 16%
10:00 +33°C° 0 mm 5 mps 757 mmHg 14%
11:00 +36°C° 0 mm 6 mps 756 mmHg 12%
12:00 +39°C° 0 mm 6 mps 756 mmHg 9%
13:00 +39°C° 0 mm 6 mps 755 mmHg 9%
14:00 +40°C° 0 mm 6 mps 755 mmHg 8%
15:00 +40°C° 0 mm 6 mps 754 mmHg 8%
16:00 +38°C° 0 mm 6 mps 754 mmHg 10%
17:00 +34°C° 0 mm 5 mps 754 mmHg 11%
18:00 +32°C° 0 mm 4 mps 754 mmHg 13%
19:00 +30°C° 0 mm 5 mps 754 mmHg 14%
20:00 +29°C° 0 mm 5 mps 754 mmHg 14%
21:00 +28°C° 0 mm 5 mps 754 mmHg 15%
22:00 +28°C° 0 mm 5 mps 754 mmHg 16%
23:00 +27°C° 0 mm 4 mps 754 mmHg 18%

5 November, Thursday

Time Temperature Precipitation Wind Pressure Humidity
00:00 +26°C° 0 mm 4 mps 754 mmHg 19%
01:00 +25°C° 0 mm 4 mps 754 mmHg 20%
02:00 +24°C° 0 mm 3 mps 754 mmHg 21%
03:00 +22°C° 0 mm 3 mps 754 mmHg 23%
04:00 +22°C° 0 mm 3 mps 754 mmHg 23%
05:00 +21°C° 0 mm 3 mps 754 mmHg 24%
06:00 +21°C° 0 mm 4 mps 754 mmHg 24%
07:00 +24°C° 0 mm 3 mps 754 mmHg 21%
08:00 +26°C° 0 mm 3 mps 754 mmHg 19%
09:00 +28°C° 0 mm 3 mps 755 mmHg 16%
10:00 +29°C° 0 mm 2 mps 755 mmHg 14%
11:00 +31°C° 0 mm 2 mps 754 mmHg 13%
12:00 +32°C° 0 mm 1 mps 754 mmHg 11%
13:00 +33°C° 0 mm 3 mps 754 mmHg 13%
14:00 +34°C° 0 mm 5 mps 754 mmHg 14%
15:00 +34°C° 0 mm 8 mps 753 mmHg 16%
16:00 +32°C° 0 mm 7 mps 753 mmHg 20%
17:00 +30°C° 0 mm 6 mps 753 mmHg 24%
18:00 +28°C° 0 mm 5 mps 753 mmHg 28%
19:00 +28°C° 0 mm 5 mps 753 mmHg 29%
20:00 +28°C° 0 mm 5 mps 753 mmHg 29%
21:00 +27°C° 0 mm 5 mps 754 mmHg 30%
22:00 +26°C° 0 mm 5 mps 754 mmHg 31%
23:00 +26°C° 0 mm 4 mps 754 mmHg 32%
Show more

We Need Your Consent

Meteoprog and our Service Providers may store and access personal data such as cookies, device identifiers or other similar technologies on your device and process such data to personalise content and ads, as well as provide social media features and to analyse the traffic.

  • Store and/or access information on your device

    Cookies, device identifiers or other information can be stored or accessed on your device for the purposes indicated above.

  • Personalised ads and content, ad and content measurement, audience insights, and products development

    Ads and content can be personalised based on a profile. More data can be added to better personalise ads and content. Ad and content performance can be measured. Insights about the audience who saw the ads and content can be derived. Such data can be used to develop or improve user’s experience, systems and software.

By clicking ‘I Agree’ you will allow the use of indicated cookies, device identifiers, web beacons or other similar technologies. Your settings can be changed in the browser on your device.

For certain purposes, legitimate interests may be relied on, rather than consent. You can read more about this in our Privacy and Cookie Policy.